PDT,Max TemperatureF,Mean TemperatureF,Min TemperatureF,Max Dew PointF,MeanDew PointF,Min DewpointF,Max Humidity, Mean Humidity, Min Humidity, Max Sea Level PressureIn, Mean Sea Level PressureIn, Min Sea Level PressureIn, Max VisibilityMiles, Mean VisibilityMiles, Min VisibilityMiles, Max Wind SpeedMPH, Mean Wind SpeedMPH, Max Gust SpeedMPH,PrecipitationIn, CloudCover, Events, WindDirDegrees
2013-3-1,51,50,48,48,46,45,93,88,82,30.39,30.35,30.31,10,7,1,22,13,29,0.23,8,,194
2013-3-2,51,42,32,46,41,28,93,84,71,30.31,30.18,30.08,10,10,3,22,8,26,0.06,6,,186
2013-3-3,50,38,26,34,29,21,93,74,43,30.33,30.29,30.22,10,9,0,13,2,,0.00,4,,88
2013-3-4,50,38,26,34,28,23,87,66,40,30.32,30.16,29.95,10,10,4,14,6,18,0.00,0,,23
2013-3-5,46,40,33,36,33,25,87,76,57,29.94,29.85,29.75,10,10,1,9,2,,0.14,7,,272
2013-3-6,42,40,37,37,35,34,93,83,76,29.91,29.71,29.59,10,10,5,13,7,17,0.18,8,,39
2013-3-7,50,42,33,39,35,28,93,81,62,30.12,30.05,29.92,10,10,3,12,6,16,0.04,6,,190
2013-3-8,51,40,28,37,33,25,93,76,54,30.26,30.15,30.09,10,9,0,12,6,,0.00,2,,24
2013-3-9,53,40,26,37,31,21,93,74,51,30.52,30.42,30.27,10,9,0,9,1,,0.00,1,,184
2013-3-10,46,38,30,37,34,27,93,80,62,30.52,30.48,30.45,10,10,3,7,1,,0.00,6,,210
2013-3-11,48,44,41,43,39,36,93,82,66,30.47,30.37,30.17,10,9,3,8,1,,0.09,8,,190
2013-3-12,51,48,44,46,45,43,93,88,82,30.19,30.13,30.09,10,8,3,16,13,24,0.42,8,,193
2013-3-13,51,48,44,46,45,39,93,86,81,30.23,30.18,30.11,10,9,5,17,11,23,0.08,7,,184
2013-3-14,53,48,44,45,42,39,93,83,67,30.18,30.10,30.05,10,9,5,22,8,31,0.11,6,,193
2013-3-15,55,50,44,46,44,39,93,83,71,30.24,30.20,30.16,10,10,5,20,11,24,0.03,6,,197
2013-3-16,48,40,33,43,37,28,87,78,57,30.16,30.02,29.90,10,10,5,28,13,34,0.05,4,,195
2013-3-17,48,37,26,32,28,21,93,71,46,30.21,30.15,30.00,10,10,10,22,5,30,0.00,2,,200
2013-3-18,53,44,35,36,31,27,87,66,38,30.26,30.20,30.14,10,10,7,20,11,26,0.00,5,,179
2013-3-19,51,43,35,37,32,27,87,72,40,30.25,29.98,29.62,10,9,3,14,6,,0.74,3,,14
2013-3-20,48,40,33,45,37,27,93,77,61,30.04,29.64,29.39,10,9,5,34,11,40,0.96,5,,194
2013-3-21,50,40,28,34,29,25,93,73,43,30.23,30.15,30.04,10,10,9,20,9,26,0.00,5,,171
2013-3-22,46,37,28,30,28,23,93,74,46,30.40,30.32,30.23,10,9,1,9,2,,0.00,6,,58
2013-3-23,50,40,30,30,27,25,87,69,37,30.42,30.37,30.32,10,9,0,9,1,,0.00,4,,173
2013-3-24,53,35,17,30,26,18,100,67,35,30.32,30.24,30.15,10,10,10,6,1,,0.00,2,,354
2013-3-25,57,42,26,36,27,19,86,55,31,30.15,30.05,29.97,10,10,10,8,2,,0.00,2,,23
2013-3-26,60,51,42,37,35,28,76,57,39,30.05,30.01,29.98,10,10,7,7,3,,0.00,5,,33
2013-3-27,55,46,37,43,37,32,87,69,51,30.02,29.99,29.96,10,10,2,9,3,,0.00,5,,34
2013-3-28,60,48,37,45,41,34,87,77,51,30.18,30.10,30.02,10,10,1,10,1,,0.15,6,,205
2013-3-29,64,50,35,45,40,32,93,69,45,30.28,30.24,30.18,10,9,0,10,3,,0.00,2,,30
2013-3-30,64,53,42,43,39,34,81,60,37,30.28,30.21,30.10,10,10,10,15,9,21,0.00,0,,27
2013-3-31,68,56,42,43,38,34,81,54,35,30.09,30.02,29.95,10,10,10,14,9,18,0.00,0,,37